Location: *
(46.3500°N, 10.9000°E)
Time: 08:09:57
(UTC+00:00)

Vanguard 2 - Pass Details

Date: 04 December 2021
Orbit: 554 x 2935 km, 32.9° (Epoch: 27 January)

Event Time Altitude Azimuth Distance (km) Brightness Sun altitude
Rises 16:08:56 0° 255° (WSW) 3,587 13.1 -6.6°
Reaches altitude 10° 16:11:37 10° 241° (WSW) 2,914 12.3 -7.0°
Maximum altitude 16:17:22 25° 189° (S) 2,541 10.6 -7.9°
Drops below altitude 10° 16:25:37 10° 141° (SE) 4,323 11.2 -9.3°
Sets 16:30:44 0° 131° (SE) 5,763 11.7 -10.1°
